Tracking 23758 objects as of 27-Oct-2021
HD Live streaming from Space Station
objects crossing your sky now

IRIDIUM 33 DEB

Track IRIDIUM 33 DEB now!
10-day predictions


NORAD ID: 46976
Int'l Code: 1997-051ACJ
Perigee: 737.1 km
Apogee: 1,010.5 km
Inclination: 86.5 °
Period: 102.3 minutes
Semi major axis: 7244 km
RCS: Unknown
Launch date: September 14, 1997
Source: United States (US)
Launch site: TYURATAM MISSILE AND SPACE COMPLEX (TTMTR)

Note: This is SATELLITE DEBRIS
aabbcc
Your satellite tracking list
Your tracking list is empty




NASA's NSSDC Master Catalog

Two Line Element Set (TLE):
1 46976U 97051ACJ 21296.86342860  .00002353  00000-0  11714-2 0  9990
2 46976  86.4568 137.2047 0188691 274.0246 147.3758 14.07872484402694
Source of the keplerian elements: AFSPC